#timestamp,LO_Frequency,Hit,StdDev 
1566964815.1,286046993.5,N
1566964835.9,286046996.3,N
1566964855.7,286046992.2,N
1566964875.6,286046994.8,N
1566964895.4,286046991.8,N
1566964915.2,286046997.5,N
1566964935.1,286046997.9,N
1566964936.0,286046997.9,N
1566964955.8,286046997.5,N
1566964975.6,286046991.8,N
1566964995.5,286046992.8,N
1566965015.3,286046988.6,Y
1566965035.2,286046994.7,P
1566965055.9,286046997.4,N
1566965075.7,286046996.8,N
1566965095.6,286047000.8,N
1566965115.4,286047002.6,N
1566965135.2,286047000.0,N
1566965155.1,286047002.7,N
1566965156.0,286047002.7,N
1566965175.8,286047004.4,N
1566965195.7,286047001.4,N
1566965215.5,286047001.7,N
1566965235.3,286047005.5,N
1566965255.2,286047008.7,N
1566965275.0,286047009.4,N
1566965275.9,286047009.4,N
1566965295.7,286047011.9,N
1566965315.6,286047009.9,N
1566965335.4,286047013.5,N
1566965355.3,286047009.9,N
1566965375.1,286047012.3,N
1566965376.0,286047012.3,N
1566965395.8,286047013.9,N
1566965415.7,286047010.9,N
1566965435.5,286047013.7,N
1566965455.4,286047013.0,N
1566965475.2,286047010.9,N
1566965495.0,286047015.7,N
1566965495.9,286047015.7,N
1566965515.8,286047018.6,Y
1566965535.6,286047009.8,P
1566965555.4,286047009.0,P
1566965575.3,286047007.3,P
1566965595.1,286047007.8,Y
1566965615.9,286047000.6,P
1566965635.7,286047000.6,N
1566965655.5,286047003.1,N
1566965675.4,286047003.8,N
1566965695.2,286047003.8,N
1566965715.0,286047002.9,N
1566965715.9,286047002.9,N
1566965735.8,286047002.9,N
1566965755.6,286047004.1,N
1566965775.5,286047005.7,N
1566965795.3,286047003.0,N
1566965815.1,286047003.7,N
1566965835.9,286047008.9,Y
1566965855.7,286047007.0,P
1566965875.5,286047004.5,N
1566965895.4,286047009.2,P
1566965915.2,286047004.7,N
1566965935.1,286047002.9,N
1566965936.0,286047002.9,N
1566965955.8,286047004.0,N
1566965975.6,286047005.4,N
1566965995.5,286047002.9,N
1566966015.3,286047007.1,Y
1566966035.1,286047004.4,P
1566966055.9,286047002.3,P
1566966075.7,286047001.5,N
1566966095.6,286047002.8,N
1566966115.4,286047004.3,Y
1566966135.2,286046998.2,P
1566966155.1,286046999.4,N
1566966156.0,286046999.4,N
1566966175.8,286046999.4,N
1566966195.7,286046997.1,N
1566966215.5,286046997.3,N
1566966235.3,286046998.9,N
1566966255.2,286046996.3,N
1566966275.0,286046992.5,Y
1566966275.9,286046992.5,P
1566966295.7,286046992.4,N
1566966315.6,286046990.3,P
1566966335.4,286046993.5,N
1566966355.3,286046991.8,N
1566966375.1,286046992.7,N
1566966376.0,286046992.7,N
1566966395.8,286046993.5,N
1566966415.7,286046993.6,N
1566966435.5,286046991.7,Y
1566966455.4,286047002.8,P
1566966475.2,286047002.3,N
1566966495.0,286047004.5,N
1566966495.9,286047004.5,N
1566966515.8,286047009.2,N
1566966535.6,286047010.4,N
1566966555.4,286047012.0,N
1566966575.3,286047011.7,N
1566966595.1,286047014.0,N
1566966615.9,286047011.1,N
1566966635.7,286047013.1,N
1566966655.5,286047011.8,N
1566966675.4,286047012.0,N
1566966695.2,286047010.6,N
1566966715.0,286047011.9,N
1566966715.9,286047011.9,N
1566966735.8,286047009.1,N
1566966755.6,286047008.3,N
1566966775.5,286047009.6,N
1566966795.3,286047013.5,N
1566966815.1,286047011.9,N
1566966835.9,286047011.8,N
1566966855.7,286047006.6,N
1566966875.5,286047006.6,N
1566966895.4,286047005.7,N
1566966915.2,286047008.9,N
1566966935.1,286047012.5,N
1566966936.0,286047012.5,N
1566966955.8,286047015.0,Y
1566966975.6,286047004.9,P
1566966995.5,286047000.4,N
1566967015.3,286047001.2,N
1566967035.2,286046999.6,N
1566967055.9,286046998.0,N
1566967075.7,286046994.7,N
1566967095.6,286046992.9,N
1566967115.4,286046996.4,N
1566967135.2,286046993.6,N
1566967155.1,286046993.3,N
1566967156.0,286046993.3,N
1566967175.8,286046993.3,N
1566967195.7,286046995.1,N
1566967215.5,286046995.0,N
1566967235.3,286046995.5,N
1566967255.2,286046996.7,N
1566967275.0,286046996.5,N
1566967275.9,286046996.5,N
1566967295.7,286046999.3,N
1566967315.6,286047000.8,N
1566967335.4,286047001.0,N
1566967355.3,286046998.6,N
1566967375.1,286046998.9,N
1566967376.0,286046998.9,N
1566967395.8,286046998.7,N
1566967415.7,286046996.8,N
1566967435.5,286047001.8,N
1566967455.3,286047007.5,N
1566967475.2,286047001.3,N
1566967495.0,286047000.9,N
1566967495.9,286047000.9,N
1566967515.8,286046998.8,N
1566967535.6,286046997.8,N
1566967555.4,286046996.3,N
1566967575.3,286046996.6,N
1566967595.1,286047000.5,N
1566967615.8,286047001.3,N
1566967635.7,286047005.3,N
1566967655.5,286047007.0,N
1566967675.4,286047004.5,N
1566967695.2,286047007.1,N
1566967715.0,286047005.2,N
1566967715.9,286047005.2,N
1566967735.8,286047004.4,N
1566967755.6,286047005.5,N
1566967775.4,286047004.6,N
1566967795.3,286047007.3,N
1566967815.1,286047007.3,N
1566967835.9,286047005.3,N
1566967855.7,286046999.7,N
1566967875.6,286046996.4,N
1566967895.4,286046991.1,N
1566967915.2,286046986.9,Y
1566967935.1,286046983.7,P
1566967936.0,286046983.7,N
1566967955.8,286046982.1,N
1566967975.7,286046977.7,N
1566967995.5,286046973.2,Y
1566968015.3,286046983.3,P
1566968035.2,286046979.9,P
1566968055.0,286046979.8,P
1566968055.9,286046979.8,Y
1566968075.7,286046996.4,P
1566968095.6,286046990.3,N
1566968115.4,286046989.9,N
1566968135.3,286046988.5,N
1566968155.1,286046990.9,N
1566968175.9,286046992.8,N
1566968195.7,286046992.7,N
1566968215.5,286046990.6,N
1566968235.4,286046990.5,N
1566968255.2,286046993.1,N
1566968275.0,286046990.5,N
1566968276.0,286046986.3,Y
1566968295.8,286047002.1,P
1566968315.6,286046999.7,N
1566968335.5,286047004.3,N
1566968355.3,286047004.2,N
1566968375.1,286047005.3,N
1566968395.9,286047004.5,N
